Theta_e
324 325 325 325 325 325 324 324 323 324 326 326 325 324 326 329 325 325 334 337 334 339 345 346 347 349 349 350 352 353 354 354 353 354 354 353 353 354 354 354 352 354 355 355 356 356 358 359 359 359 358 358 357 356 357 357 354 355 355 353 352 349 347 349 347 344 346 349 349 349 349 349 348 348 347 346 346 345 346 346 347 346 346 347 348 350 352
323 324 324 325 326 325 325 326 325 326 327 326 326 326 327 328 327 330 335 334 334 342 345 344 346 348 349 351 351 351 352 353 353 353 353 352 352 352 353 353 353 351 349 349 349 349 351 353 356 358 358 357 356 355 356 355 353 353 353 353 354 352 350 350 347 345 346 347 347 348 348 349 349 349 349 349 348 348 347 347 346 346 346 345 345 346 348
321 323 324 325 325 325 324 326 328 329 327 327 328 328 328 329 328 332 335 332 337 345 346 345 346 349 349 351 350 350 351 352 352 352 352 351 352 353 352 353 353 349 346 346 346 346 344 343 348 353 355 356 356 355 356 355 354 354 354 354 354 354 355 353 349 347 346 345 345 346 346 348 348 348 348 349 350 351 351 350 348 347 346 346 345 345 345
319 322 323 323 324 325 324 326 329 329 327 328 329 329 330 331 330 331 331 330 337 346 347 346 348 350 349 350 351 351 350 350 351 351 351 351 352 353 353 354 354 352 350 349 349 349 346 344 347 351 353 355 355 355 355 354 353 354 353 353 355 357 358 356 351 349 347 345 345 346 346 347 348 348 347 348 350 350 350 352 351 349 349 348 346 344 344
318 321 323 322 322 322 322 325 328 330 330 331 332 335 337 336 336 335 333 334 341 347 346 346 348 347 349 350 351 350 350 350 351 351 352 352 351 352 353 353 353 353 354 353 352 351 350 350 351 351 352 353 353 354 354 353 353 353 353 353 354 356 357 355 354 353 351 350 351 350 348 348 349 349 349 349 351 351 350 351 352 351 351 350 347 346 345
317 321 323 322 320 318 321 325 327 329 331 332 336 340 339 338 338 339 339 342 345 345 344 345 346 347 349 350 350 350 350 350 351 351 351 351 351 350 350 350 350 351 352 352 352 353 352 352 352 351 351 352 352 352 352 352 353 353 352 353 353 353 353 353 353 353 351 351 351 348 346 346 347 348 349 350 351 351 351 350 351 352 353 353 352 351 348
319 321 321 319 319 320 323 325 325 327 329 330 334 338 338 337 338 339 342 343 343 345 346 345 345 347 348 349 349 350 350 350 350 350 349 349 348 347 347 348 348 349 350 350 350 351 352 352 351 352 352 352 351 351 350 350 351 351 351 350 350 350 350 349 350 350 349 349 348 345 343 344 345 346 348 349 349 350 351 350 350 351 351 353 355 355 354
320 320 319 319 320 323 324 325 325 327 329 330 333 335 336 336 337 339 342 343 343 346 345 344 345 346 347 348 348 348 349 349 349 348 347 347 346 345 346 346 346 347 347 347 347 348 350 351 351 351 351 351 351 351 349 348 348 348 349 349 349 349 348 348 349 349 350 350 349 348 348 349 350 350 350 351 351 351 350 350 351 351 352 353 353 354 355
321 318 318 321 322 323 325 327 326 327 328 329 332 335 334 334 336 339 341 342 343 344 344 345 346 345 346 346 346 346 347 347 347 347 346 345 343 344 344 344 344 344 344 344 344 346 347 348 348 348 349 350 350 349 348 348 349 348 348 347 348 349 348 348 349 349 350 351 351 350 351 351 352 353 353 353 353 353 352 352 353 353 353 353 353 353 353
320 319 318 320 320 322 327 328 327 327 328 327 331 334 332 331 335 339 340 340 343 343 344 345 345 345 346 345 344 344 345 345 345 344 343 342 342 343 342 342 342 341 342 343 343 344 345 344 344 344 345 346 347 347 348 347 347 347 346 346 347 348 347 347 348 348 349 349 350 350 351 351 351 352 352 353 353 352 352 352 353 353 353 354 353 353 353
320 319 317 318 320 325 330 330 327 326 327 328 330 333 331 329 333 338 340 341 343 344 345 345 344 344 345 344 343 344 343 343 342 341 341 341 341 341 340 340 339 338 338 339 340 341 341 341 341 341 342 343 343 343 344 344 344 344 344 344 344 344 343 343 344 345 346 347 348 349 350 350 350 350 351 351 350 350 350 351 351 351 351 351 352 352 352
318 318 317 319 324 328 329 329 327 327 328 327 325 327 329 330 331 336 340 341 342 344 345 345 345 345 345 343 342 342 342 341 339 340 340 339 338 338 337 337 336 335 333 334 336 336 334 335 335 336 337 339 339 338 339 340 340 340 340 340 340 340 340 341 342 343 344 345 346 348 348 348 347 348 348 347 346 345 346 347 347 347 348 348 348 349 349
317 317 318 322 327 328 327 328 329 328 327 325 323 324 328 330 331 335 338 340 341 343 344 344 345 345 343 341 341 341 341 339 337 336 336 334 334 334 333 332 333 332 331 332 332 330 330 331 331 329 329 329 329 330 332 333 335 334 334 334 335 336 336 337 339 342 343 344 345 345 346 345 344 344 344 343 342 341 342 342 343 343 344 343 343 344 344
318 317 319 323 327 327 327 329 330 329 328 326 324 327 330 331 333 336 337 338 341 342 341 341 341 341 342 340 340 340 340 339 336 334 333 333 331 330 330 330 330 330 330 329 324 323 327 330 328 326 325 323 321 321 323 324 326 326 326 327 329 330 331 333 335 337 337 339 341 341 341 341 341 340 340 339 338 339 339 339 339 339 339 339 339 338 336
320 317 318 322 326 327 328 329 330 329 329 328 328 330 331 331 334 337 336 338 341 340 339 339 338 338 339 338 338 338 338 337 334 333 333 331 328 326 328 328 326 324 324 322 320 321 325 326 323 320 320 319 320 321 320 318 318 319 321 323 324 325 328 330 332 331 329 330 333 335 336 337 336 336 337 338 337 337 337 337 336 336 336 336 336 335 333
323 321 321 324 327 327 327 329 330 329 329 330 330 332 332 332 334 336 336 338 339 338 338 339 337 335 335 335 338 338 336 335 334 333 334 331 328 328 329 327 325 323 323 324 325 325 326 326 322 317 314 315 317 319 319 318 316 314 315 317 316 318 321 323 325 328 327 326 327 327 329 330 331 330 332 335 335 335 336 336 336 336 336 336 336 336 335
326 326 326 327 327 327 327 328 329 329 328 329 331 332 333 334 335 336 336 336 337 337 337 337 336 334 334 335 338 337 336 336 335 335 334 332 330 331 330 328 327 327 327 328 328 327 328 326 319 312 311 313 316 317 316 316 316 313 314 316 316 318 322 323 325 329 330 328 327 324 321 325 329 330 330 331 331 332 334 335 335 335 335 335 335 335 335
326 327 327 327 328 328 327 327 328 328 327 328 330 332 333 334 334 335 335 335 336 337 337 337 336 336 335 336 336 336 336 336 335 334 333 332 331 331 330 329 328 328 328 328 327 326 326 324 319 316 313 312 312 311 309 310 312 311 312 314 315 316 318 319 323 328 329 329 328 325 323 326 330 331 331 332 332 332 333 334 333 332 332 333 332 332 333
325 326 327 328 328 328 328 328 328 328 327 327 328 330 332 333 333 334 334 334 335 337 338 338 337 336 336 336 335 335 335 335 335 334 332 332 331 330 329 329 327 327 327 326 325 325 325 325 324 322 317 312 309 311 314 315 311 307 307 310 311 310 312 315 320 327 329 329 328 327 326 327 328 329 330 331 329 328 330 332 332 331 330 330 330 330 332
325 327 328 328 327 327 328 328 328 328 328 327 327 328 330 331 332 332 332 332 334 335 336 337 336 336 335 335 334 334 334 334 334 333 331 330 330 329 329 329 327 327 327 326 325 324 323 323 322 319 316 314 315 320 325 323 315 308 307 307 308 311 316 320 324 325 326 326 328 328 328 328 328 328 330 330 328 328 330 331 330 329 329 329 328 329 331
325 326 326 327 327 328 328 328 328 329 328 328 327 327 327 328 330 331 331 331 332 333 334 335 336 336 334 334 334 334 333 333 333 331 330 328 327 327 328 328 324 323 325 325 323 320 320 319 317 314 314 315 316 321 322 318 313 311 309 308 311 318 322 324 323 321 320 321 327 329 328 328 330 328 328 329 329 328 328 328 328 329 330 329 327 328 330
326 327 327 327 328 329 329 328 328 328 328 328 328 327 327 327 327 328 330 330 330 331 332 333 334 334 333 333 333 333 333 332 331 329 328 326 325 325 327 326 322 319 319 318 316 315 315 314 312 310 310 311 315 319 317 312 311 312 310 313 319 323 325 324 322 323 324 325 328 329 327 328 328 326 326 328 328 326 323 321 321 324 327 327 327 328 328
327 328 328 327 328 329 329 328 328 328 328 328 328 328 328 327 326 326 327 328 329 330 330 331 332 333 333 332 332 331 331 331 330 328 326 325 323 322 323 323 320 318 317 315 313 313 313 312 311 311 310 308 311 314 312 309 310 309 311 318 323 324 325 323 320 323 327 327 326 328 328 328 327 324 324 326 326 323 320 316 314 315 317 320 323 324 324
328 328 328 328 328 328 328 327 327 327 327 327 327 327 327 327 327 327 326 326 326 327 328 329 331 332 332 332 331 330 330 330 329 327 324 323 322 321 321 320 319 319 318 316 315 315 314 312 311 311 311 309 309 309 307 308 309 307 309 318 324 325 324 320 314 319 326 325 323 325 327 326 326 325 325 325 324 322 320 318 316 314 312 313 315 316 319
328 328 328 327 327 327 326 326 326 326 326 327 327 327 326 325 325 326 327 326 326 326 325 326 328 330 332 332 331 331 330 330 329 327 324 322 322 323 323 322 321 321 320 318 319 319 316 314 312 312 312 311 310 309 307 307 308 306 307 315 322 324 323 319 315 318 324 323 322 324 325 324 325 325 325 325 325 325 324 322 321 318 315 313 313 312 314
327 327 327 325 325 326 325 326 326 325 325 325 325 325 326 324 324 326 327 326 326 325 325 325 325 326 328 330 331 332 331 331 330 327 324 322 322 323 323 323 322 322 320 319 321 321 318 315 314 313 313 312 310 310 309 308 308 307 306 309 314 316 316 317 317 319 322 322 322 323 323 323 323 323 323 323 323 324 325 324 323 322 320 319 317 316 315
326 325 325 325 325 326 326 326 326 324 323 322 322 322 322 323 324 325 325 326 326 326 325 325 325 325 326 327 329 330 330 331 330 328 326 324 324 323 323 323 322 321 320 319 319 317 315 315 315 314 314 313 312 313 312 311 310 309 307 307 309 308 306 310 316 320 321 322 322 322 322 322 322 322 322 323 322 322 323 323 322 323 323 322 320 319 318
325 324 324 325 327 327 325 323 322 322 320 319 319 320 319 319 321 323 323 324 324 325 325 326 326 326 326 326 326 327 328 328 329 328 328 328 327 325 324 323 323 321 320 319 317 314 313 314 315 315 315 315 314 314 314 313 313 312 311 312 314 311 307 308 316 321 320 319 319 320 320 321 321 321 321 321 321 321 321 321 321 321 322 322 321 320 318
324 324 323 324 325 324 322 320 319 319 317 316 316 317 316 315 316 319 321 322 322 322 323 324 325 325 326 326 325 325 326 327 327 327 327 327 328 327 326 324 323 321 320 319 318 315 313 314 314 315 315 315 314 315 315 315 315 315 315 316 319 319 315 313 315 318 317 315 314 315 316 317 319 319 319 320 320 320 320 321 321 320 320 321 321 320 319
324 323 322 322 321 320 319 319 318 316 316 316 315 315 315 315 314 315 317 320 320 320 321 322 323 323 324 325 325 325 325 325 326 326 326 326 327 326 326 325 324 323 322 322 321 318 315 314 313 315 317 315 314 315 316 317 318 318 317 318 319 319 318 315 314 314 313 312 311 310 310 311 314 317 318 318 319 319 319 319 319 319 319 319 319 318 319
323 322 322 321 319 318 318 318 316 316 317 316 315 315 316 316 315 314 314 315 318 320 320 320 321 322 322 323 324 324 325 325 325 325 326 326 326 326 325 325 324 323 323 323 322 321 318 315 312 315 318 318 316 317 318 318 319 319 318 319 318 316 314 314 314 313 313 313 313 312 311 312 314 316 317 317 318 318 318 318 318 318 318 318 317 317 317
322 322 321 320 318 317 317 317 315 315 316 315 314 314 315 315 315 314 313 313 315 318 319 318 319 319 320 321 322 323 323 324 324 324 324 325 325 326 326 325 324 324 324 324 323 322 322 318 314 314 317 318 318 318 318 318 318 318 318 318 318 315 313 312 313 313 313 312 313 314 314 314 314 315 316 316 316 317 317 317 317 317 317 317 317 316 316
321 321 320 319 317 316 317 317 316 315 315 315 314 315 315 315 315 314 313 313 314 315 316 317 318 318 319 320 320 321 321 321 322 323 324 324 323 323 323 323 323 323 322 323 323 323 322 321 318 315 315 317 319 318 318 318 318 318 317 317 317 316 315 313 312 312 312 312 313 314 315 315 314 314 314 314 314 314 315 316 316 316 316 315 315 315 314
320 320 319 319 318 317 316 317 316 316 315 315 315 315 315 315 315 315 314 314 314 314 315 315 316 317 317 318 319 320 319 319 320 321 323 323 322 321 321 321 321 320 319 320 322 322 322 322 321 318 316 317 318 318 318 317 317 317 317 317 317 316 316 315 313 312 312 313 314 314 314 313 312 311 311 312 314 314 314 314 315 315 315 314 314 313 313
320 320 320 320 318 316 315 315 315 314 315 315 315 315 314 314 314 314 314 314 315 315 315 315 315 315 316 316 317 318 318 318 318 318 319 321 321 322 322 321 321 320 319 319 320 322 323 323 323 321 319 318 318 318 318 317 317 317 317 317 316 316 316 315 314 313 313 314 314 314 313 313 312 311 310 312 313 313 313 313 313 313 313 313 312 312 311
320 320 319 318 317 316 315 314 314 314 315 315 314 314 314 314 314 314 315 315 315 316 316 316 315 315 315 315 315 316 316 317 317 316 317 318 319 320 321 321 321 321 321 320 319 320 321 322 322 321 320 319 318 318 318 317 317 316 316 316 315 315 315 314 314 314 313 313 313 313 312 312 311 311 311 311 311 312 312 312 312 312 311 311 311 311 310
320 319 319 318 317 316 315 315 315 315 314 314 314 314 314 315 315 315 315 315 315 315 315 315 315 315 315 314 314 314 315 315 315 315 316 317 318 319 320 321 320 320 320 320 319 319 320 321 321 320 320 320 319 318 318 317 317 316 315 314 313 313 313 313 313 312 312 311 311 311 311 310 310 310 310 310 310 311 311 310 310 310 309 309 309 309 309
320 318 318 317 316 315 315 315 315 314 314 314 315 315 315 315 315 314 314 314 313 314 314 314 314 314 314 314 313 313 313 314 314 314 315 315 317 318 319 319 319 319 318 319 318 318 318 319 319 319 319 319 319 318 317 317 316 315 314 312 312 312 312 312 312 311 311 311 310 310 310 310 310 310 310 309 309 309 309 309 308 308 308 308 308 308 307
318 317 316 316 315 315 315 315 314 314 314 315 315 315 314 314 313 313 313 312 312 312 312 312 312 312 312 312 312 312 312 312 312 313 313 314 315 316 317 318 318 319 319 319 319 318 317 317 317 318 318 318 318 317 316 315 315 314 313 311 311 311 311 311 311 310 311 311 310 309 308 308 308 309 309 308 308 308 307 307 307 306 306 306 306 306 306
318 317 316 315 315 314 314 314 314 314 314 314 313 313 313 312 312 312 312 312 312 312 312 312 312 312 312 312 312 312 311 311 311 311 312 312 313 314 315 315 316 318 318 318 318 317 315 314 315 316 317 317 317 316 315 314 315 314 312 311 311 311 311 310 310 310 311 310 308 306 306 306 307 307 307 307 307 307 306 306 305 305 304 304 304 304 304
317 317 315 314 314 314 314 314 314 314 313 313 312 312 312 311 311 311 311 311 311 312 312 312 312 312 312 313 312 312 312 312 311 311 311 312 312 312 313 313 314 315 316 317 317 316 314 313 313 314 315 316 316 315 314 314 314 313 311 311 311 310 309 308 308 309 309 307 305 304 305 306 306 306 306 306 306 306 305 305 304 304 304 304 304 303 303
316 315 314 314 314 314 314 314 313 313 312 312 311 311 311 310 310 310 311 311 311 311 311 311 311 311 311 312 312 312 312 312 312 312 311 311 312 312 312 312 312 312 313 315 316 315 313 313 314 314 314 315 315 314 313 313 313 312 311 311 310 309 308 307 307 307 306 305 305 305 305 306 306 306 306 305 305 304 304 304 304 304 303 303 303 302 302
315 314 313 314 314 313 313 313 312 312 311 311 311 311 310 310 310 310 310 310 310 310 310 310 310 310 310 310 311 311 311 311 312 312 312 312 312 312 312 313 313 313 313 314 314 313 312 313 314 314 314 314 313 312 312 312 312 312 310 309 309 308 307 306 306 306 305 305 305 305 305 305 305 305 305 304 304 304 304 303 303 303 303 302 302 302 301
314 313 313 314 313 313 312 312 311 311 311 311 311 310 310 310 309 309 309 310 310 310 310 310 310 310 310 310 310 310 311 311 311 311 312 312 312 312 312 312 312 312 312 313 313 313 312 312 313 313 313 312 312 311 311 311 310 310 309 307 307 307 306 306 305 305 305 304 304 304 304 304 304 304 304 304 303 303 303 303 303 302 302 302 301 301 301
313 313 313 313 312 312 312 311 311 310 311 311 310 310 310 310 309 309 310 310 310 310 310 310 310 310 310 311 311 311 311 311 311 312 312 311 311 311 310 310 310 311 311 311 311 311 312 312 313 312 312 312 311 310 309 309 308 307 306 305 304 305 305 305 305 304 304 304 304 303 303 303 303 303 303 303 302 302 302 302 302 301 301 301 301 300 300
313 313 312 312 311 311 311 311 310 310 310 310 310 310 310 310 310 310 310 310 310 310 310 310 310 310 311 311 311 311 310 310 310 311 311 310 310 310 309 309 309 310 310 309 308 309 311 312 311 311 310 309 308 306 305 305 304 304 304 303 303 303 304 304 304 304 304 303 303 303 303 302 302 302 302 302 301 301 301 300 300 300 300 300 300 299 299
313 312 312 311 311 311 310 310 310 310 310 310 310 310 310 310 310 310 310 310 310 310 310 310 310 310 310 310 310 310 310 310 311 311 310 309 309 309 309 309 309 309 308 308 308 309 310 311 310 309 308 306 304 303 302 301 301 302 303 303 303 303 303 303 303 303 303 303 302 302 302 302 301 301 301 301 300 300 300 300 299 299 299 299 299 299 298
312 311 311 311 311 311 310 310 310 310 310 310 310 310 309 310 310 310 310 310 310 310 310 310 310 310 310 310 310 310 310 310 310 310 310 310 309 309 309 310 309 309 308 308 308 309 309 309 309 307 306 304 302 302 302 302 302 302 303 303 303 303 303 303 303 303 303 303 302 302 301 301 301 301 301 301 300 300 300 300 299 299 299 299 298 298 298
311 311 311 311 311 310 310 309 310 311 311 310 310 309 310 310 310 310 310 310 310 310 310 310 310 310 310 310 310 309 309 309 309 310 310 310 310 309 309 309 309 308 308 308 308 308 307 306 305 305 305 303 302 302 302 302 302 302 302 302 302 302 303 303 303 303 302 302 302 301 301 301 301 300 300 300 300 300 300 299 299 299 299 298 298 298 298
311 311 311 310 310 310 309 309 310 310 310 310 309 310 310 310 310 310 310 310 310 310 309 309 309 310 310 310 310 309 309 309 309 309 309 310 309 309 309 308 308 308 308 307 307 306 305 303 302 302 302 301 300 300 301 301 301 302 302 302 302 302 302 302 302 302 301 301 301 301 301 301 301 300 300 300 300 300 300 299 299 299 298 298 298 298 298
310 310 310 310 310 309 309 309 310 310 310 309 309 310 310 310 310 310 309 309 309 309 309 309 309 309 309 309 309 310 309 309 308 308 308 308 309 308 308 307 306 305 305 305 304 304 303 302 301 300 301 301 301 301 302 302 302 302 302 302 302 302 302 302 301 301 301 301 301 301 301 301 301 300 300 300 300 300 300 299 299 299 299 299 298 298 298
310 309 309 309 309 309 309 310 310 310 310 310 310 309 309 309 309 309 309 308 309 309 309 309 309 308 308 308 309 309 308 308 307 308 308 308 307 307 306 305 303 303 303 303 302 302 301 300 300 300 301 303 303 303 302 302 302 302 302 302 302 302 302 302 301 301 301 301 301 301 301 301 301 301 301 301 301 300 300 300 300 299 299 299 299 299 299
Wind_Speed
12 11 8 8 10 11 11 12 13 12 12 12 12 12 9 6 8 5 4 5 4 2 5 9 8 7 9 12 12 14 16 16 17 17 19 19 19 18 18 20 21 22 22 21 19 16 13 12 13 13 14 15 16 16 16 17 17 18 19 20 21 21 20 20 20 19 18 18 19 19 18 18 18 16 15 15 16 16 16 16 15 15 15 15 15 15 14
10 10 9 8 9 10 9 7 6 8 11 13 12 12 12 12 11 6 3 4 1 5 2 4 9 9 11 12 11 12 14 14 15 16 17 19 19 19 18 17 19 22 22 20 17 15 14 13 12 12 12 14 15 15 15 16 17 17 19 19 20 21 21 21 20 19 19 19 19 20 20 19 19 18 17 16 16 16 17 17 17 16 16 16 16 16 15
8 9 9 9 10 9 5 1 3 6 9 9 8 8 9 10 8 5 5 5 4 6 1 3 8 11 12 13 11 11 13 14 14 14 15 16 16 16 16 16 18 22 23 20 17 17 18 18 15 14 14 14 15 15 15 16 16 17 18 18 19 19 20 21 22 21 20 21 20 20 20 19 19 19 19 18 18 18 18 17 17 18 18 17 18 17 16
6 7 10 12 10 7 5 2 4 5 5 5 5 5 4 5 5 6 7 5 4 8 5 3 6 9 11 13 12 11 11 12 13 13 12 13 13 12 13 13 14 17 18 18 16 15 17 18 16 16 17 16 15 14 15 16 16 17 18 18 18 18 18 21 23 21 21 21 20 19 19 20 20 20 20 20 19 19 19 17 17 19 19 19 20 19 17
5 6 9 11 10 8 6 3 5 5 3 3 4 4 5 5 4 5 4 0 3 6 8 6 5 6 9 11 12 11 10 10 11 11 10 10 11 11 11 11 11 11 11 13 13 13 15 16 16 17 19 19 18 17 16 16 16 18 18 17 18 19 20 22 22 21 21 20 19 18 18 18 18 19 20 20 20 20 20 19 19 19 19 19 20 20 19
5 5 5 7 9 8 2 4 7 6 3 4 4 5 7 6 3 3 4 3 3 4 6 6 5 5 7 10 10 10 10 10 10 10 11 11 10 10 10 11 10 10 11 12 13 13 15 16 17 18 20 22 21 21 20 18 17 17 18 18 19 20 20 21 21 21 21 20 18 19 21 20 19 19 20 21 21 21 22 22 22 21 19 18 17 17 19
6 5 5 7 6 4 3 7 9 8 6 5 6 8 7 7 5 4 3 1 3 3 5 7 7 7 9 10 10 10 11 11 11 11 12 12 11 10 9 9 9 9 9 11 12 14 16 18 19 20 20 21 22 20 19 18 17 17 17 17 19 19 19 19 18 17 18 18 19 21 23 23 21 21 22 22 21 21 22 23 23 23 22 20 17 15 15
5 5 6 5 1 3 3 6 10 10 9 7 5 7 7 9 7 4 2 3 6 8 11 12 10 11 12 11 9 9 10 11 10 11 12 12 11 10 8 9 9 9 9 11 13 15 17 19 20 20 20 20 21 20 19 20 20 19 17 16 17 17 16 15 14 15 16 16 18 20 21 19 18 18 18 19 19 21 21 22 22 22 22 22 20 18 16
5 6 7 3 1 2 3 6 9 10 9 7 3 3 7 10 9 6 5 2 3 7 10 11 13 13 12 10 9 8 9 10 11 12 13 12 12 10 9 9 9 8 9 10 12 13 15 16 15 16 18 20 20 19 19 21 21 20 17 17 17 17 14 13 14 16 16 16 17 19 18 16 15 15 15 15 16 17 18 18 18 18 18 20 20 20 20
5 6 7 5 5 4 2 7 9 10 9 7 5 2 6 11 13 11 9 8 5 5 10 11 12 12 8 7 7 8 11 14 14 14 13 12 11 12 12 13 13 12 11 12 12 12 12 12 11 13 16 18 18 18 19 20 20 19 18 16 16 14 12 10 10 12 13 14 15 16 14 13 13 13 14 14 13 14 15 15 16 16 17 18 18 18 20
6 7 8 6 5 1 5 8 9 11 11 8 4 3 2 11 17 15 12 11 10 2 9 10 9 7 5 5 8 10 13 14 13 13 13 13 14 16 16 16 16 16 17 18 17 17 17 16 15 14 14 16 18 19 20 19 18 18 17 16 16 13 10 9 8 8 9 9 9 9 9 10 11 11 12 12 11 11 12 14 14 14 15 16 16 16 17
6 7 7 3 1 3 8 11 10 11 12 10 6 6 1 11 18 15 11 11 12 5 5 7 4 2 2 5 10 12 14 14 13 13 15 17 19 18 17 18 18 18 20 19 18 19 20 19 17 15 15 16 17 19 21 20 20 19 18 17 17 15 14 12 10 8 9 10 9 8 8 9 9 8 7 7 6 5 5 6 7 7 7 10 12 12 11
5 6 5 1 3 4 10 13 12 14 12 8 4 2 4 12 16 14 10 9 9 5 2 3 2 3 4 9 13 14 15 16 15 16 17 19 20 19 18 20 19 18 18 17 16 19 19 17 15 14 15 16 16 17 18 18 19 18 18 18 18 17 16 14 10 8 10 11 10 9 8 7 6 7 6 5 6 6 4 3 4 3 1 3 6 7 6
4 5 3 2 4 6 14 13 11 15 10 4 1 6 8 11 14 13 11 10 9 5 6 8 8 7 10 15 16 15 17 18 17 17 18 19 20 21 20 19 17 16 15 16 18 19 16 12 11 12 13 16 16 16 16 16 15 14 14 15 16 16 16 14 10 7 9 10 8 8 7 6 6 6 6 6 7 8 6 5 6 7 5 4 2 2 2
4 5 3 3 4 7 16 11 7 12 8 2 4 9 8 9 11 10 8 9 10 7 9 11 14 17 17 16 16 16 18 18 17 18 19 18 20 22 19 16 16 16 17 17 17 16 11 8 9 9 10 13 15 14 15 15 13 12 12 12 13 13 13 12 9 7 8 7 6 6 6 6 6 6 7 5 5 6 6 5 5 5 6 6 4 3 2
4 2 2 2 2 8 14 11 7 9 9 5 6 8 7 9 10 9 8 9 10 9 9 11 15 17 14 12 14 17 18 18 19 19 18 17 18 18 16 15 15 15 15 13 12 10 8 7 8 8 8 9 10 11 12 12 12 12 11 11 11 10 8 7 7 6 6 6 6 5 5 5 4 5 6 5 5 5 5 4 3 3 3 4 4 3 3
4 3 5 5 5 8 12 13 11 10 10 9 8 8 9 10 10 10 9 9 9 8 11 11 10 11 11 12 15 17 17 19 19 18 17 17 17 16 15 15 13 12 11 11 10 9 8 6 7 8 7 7 8 9 10 11 11 11 10 10 10 9 8 7 6 5 5 6 6 5 4 3 2 2 3 3 3 4 4 4 3 2 2 2 2 3 3
8 8 7 7 7 8 10 11 12 12 12 12 11 11 11 11 11 11 9 10 9 8 10 9 7 11 14 15 15 16 17 17 17 17 17 17 16 15 14 13 11 10 10 10 9 9 8 6 7 8 7 7 7 7 7 8 9 10 10 10 10 10 9 8 7 5 4 4 4 4 4 4 3 2 2 2 3 3 2 2 2 2 2 1 1 2 2
5 4 6 8 7 8 9 9 10 12 13 14 13 13 12 12 12 12 11 10 9 8 6 6 9 12 14 14 14 15 16 16 17 18 18 18 16 15 13 11 10 9 9 9 9 9 9 9 8 7 6 6 6 5 4 4 5 7 8 8 8 8 7 7 8 7 5 5 4 4 4 4 3 3 2 1 2 1 2 2 1 1 1 1 2 2 2
3 3 6 8 8 9 9 8 9 11 12 13 14 13 13 13 13 13 13 11 10 9 7 6 11 13 13 14 14 13 14 16 16 18 20 20 18 15 13 11 10 9 8 9 9 8 8 8 7 5 4 4 5 6 5 4 4 5 6 6 6 6 5 5 5 6 8 8 6 4 4 4 5 6 5 3 2 3 5 7 5 3 1 1 1 1 1
4 6 7 7 7 8 9 9 10 10 10 11 13 13 14 14 13 13 13 12 11 9 8 7 9 11 12 14 13 13 14 15 15 17 19 19 17 14 11 9 9 7 7 7 6 5 6 6 4 4 3 4 5 5 5 5 4 3 4 4 5 5 5 4 5 5 6 6 4 3 4 4 8 10 10 9 7 6 9 10 9 8 7 5 5 3 1
2 3 3 3 3 4 6 8 8 8 9 10 11 12 14 15 14 13 12 11 10 8 7 6 5 7 10 11 11 12 14 16 18 19 19 19 18 16 12 9 7 5 4 3 2 2 3 3 3 4 5 5 5 5 5 6 4 4 3 3 4 4 3 3 4 5 4 4 5 5 5 4 6 8 11 13 11 7 6 8 9 10 10 9 10 8 5
4 2 2 2 3 5 6 7 7 7 8 8 10 11 12 13 13 12 11 10 9 8 6 5 3 4 5 7 9 10 12 17 20 20 19 19 19 17 14 11 7 5 5 3 2 2 1 2 4 5 6 7 7 7 7 6 6 6 5 4 4 3 2 2 5 5 3 2 6 7 5 4 3 3 7 12 13 11 9 8 8 10 11 12 12 12 9
7 6 3 3 4 6 7 6 6 7 7 7 9 9 10 10 10 10 10 10 9 8 6 5 4 2 2 5 8 9 11 15 18 18 17 17 16 16 16 14 11 10 10 8 4 3 3 3 5 5 6 7 7 7 7 6 6 7 7 6 5 4 2 3 5 6 3 2 4 5 3 3 3 2 3 6 8 10 9 8 8 7 8 10 12 13 13
6 7 6 5 5 6 6 5 6 7 6 7 7 7 8 9 8 7 8 8 8 8 7 6 4 3 1 3 6 8 10 13 16 17 18 17 16 14 14 15 16 16 16 15 12 9 5 4 5 7 7 7 7 6 6 6 6 7 8 7 6 5 3 3 5 5 3 2 3 3 2 2 3 3 3 4 6 9 9 9 9 7 5 6 8 9 11
5 6 4 3 4 4 3 3 4 5 5 6 6 6 6 7 7 6 5 5 5 6 6 6 5 4 2 1 3 6 8 11 15 19 21 20 18 14 11 12 15 18 19 17 15 12 8 6 8 9 8 7 7 7 7 6 6 6 7 8 7 7 6 5 6 5 3 2 3 2 2 2 2 2 3 4 4 5 7 9 10 10 9 6 4 5 6
4 4 2 3 4 4 3 3 4 5 5 5 5 5 5 6 6 5 4 4 4 4 4 4 5 5 3 0 2 4 6 9 14 18 20 20 19 18 16 13 13 16 18 15 12 11 10 10 11 12 11 10 10 9 8 7 7 6 6 6 5 6 6 6 6 4 3 4 3 2 3 3 3 3 3 4 4 5 6 7 7 8 11 11 10 11 11
3 3 1 2 2 5 5 4 4 5 5 5 5 5 5 6 5 4 4 4 5 5 4 4 4 4 3 2 1 3 6 9 11 14 15 16 16 17 17 16 15 15 18 17 13 11 12 14 14 14 13 12 12 10 9 9 8 7 7 5 2 2 3 4 5 4 4 5 6 5 4 3 3 4 4 5 5 5 6 6 6 5 7 10 13 14 15
4 3 2 2 3 4 5 4 4 4 4 5 5 5 6 6 6 6 5 5 5 5 4 4 4 4 4 3 2 3 5 7 9 11 13 14 14 13 13 14 15 15 17 18 16 14 15 15 16 16 15 14 13 12 10 10 9 8 8 7 4 1 2 3 4 3 4 5 7 7 6 5 5 5 5 5 6 6 6 6 6 6 5 6 10 13 15
4 3 3 3 3 3 4 4 4 3 3 4 5 5 6 7 7 7 6 6 5 5 5 4 4 5 5 5 5 4 5 5 7 9 11 13 14 13 13 13 14 15 17 17 17 17 17 18 20 19 16 16 15 13 10 8 7 7 8 7 6 6 5 4 3 3 3 4 6 6 6 5 5 6 6 6 6 7 7 6 7 7 7 7 8 10 11
5 4 4 4 4 4 4 3 2 1 1 3 4 5 5 6 8 8 8 7 6 5 5 5 5 5 6 6 7 7 6 5 6 7 8 10 12 14 14 14 15 16 18 19 19 19 19 20 22 20 17 16 15 12 10 8 7 7 6 6 6 8 8 5 3 3 3 4 5 5 5 4 5 5 6 6 7 7 7 8 8 8 8 8 9 9 10
7 6 6 5 5 5 4 3 2 1 1 2 4 5 5 6 8 8 8 8 7 6 6 7 7 7 7 7 7 7 7 7 7 6 7 9 10 12 15 17 18 16 14 15 17 20 20 21 23 22 20 18 15 12 12 12 11 10 9 7 7 8 7 5 4 3 3 3 5 5 6 6 6 7 7 8 8 8 8 8 9 9 9 9 8 11 15
8 8 7 8 8 7 6 5 4 3 4 4 5 6 6 7 7 8 8 7 7 8 8 8 7 8 8 8 8 8 8 9 8 8 8 10 11 13 16 19 21 20 17 15 18 21 22 21 22 23 23 21 18 15 15 15 13 12 11 10 9 10 11 9 6 5 4 4 5 6 7 8 8 8 8 8 9 9 9 9 9 9 10 9 9 14 20
9 7 6 7 8 7 6 6 5 4 5 5 6 6 7 7 8 8 8 8 8 9 9 9 9 9 9 9 10 10 10 10 10 9 8 9 10 12 15 16 17 18 19 20 22 22 20 20 22 24 25 25 22 18 17 17 16 14 14 12 11 11 13 12 7 5 4 5 6 8 9 10 10 10 9 8 8 8 8 9 9 9 10 9 9 15 22
8 6 5 5 6 5 5 5 5 5 6 7 8 8 8 9 9 9 10 10 10 10 10 10 10 10 10 10 11 11 12 12 12 11 10 9 9 10 12 13 14 15 17 19 21 21 19 20 22 25 26 26 24 20 18 19 19 19 17 15 13 13 12 10 8 7 7 7 7 8 9 8 8 8 8 8 8 8 8 8 8 9 9 9 10 15 21
8 7 6 6 6 5 5 5 6 6 6 7 8 9 9 10 10 11 11 11 12 12 11 11 12 12 12 12 12 12 13 13 13 13 13 12 11 10 11 12 13 14 16 18 19 20 20 21 24 26 27 26 24 22 21 20 20 20 21 20 18 16 14 13 12 11 10 10 9 9 9 10 11 11 10 9 9 8 8 8 9 9 10 10 11 13 17
9 8 7 7 6 5 5 5 5 6 7 8 9 9 10 10 10 11 11 11 11 12 12 13 13 14 13 13 14 14 14 14 13 13 13 14 13 12 11 12 13 15 16 17 18 19 20 23 26 27 27 26 25 24 23 23 22 22 23 23 20 17 15 14 13 12 11 10 10 10 10 11 12 12 11 11 9 8 8 9 9 10 10 11 11 11 13
9 8 8 7 6 5 5 6 6 7 8 8 9 9 10 10 10 10 10 11 12 13 13 14 14 15 15 15 15 16 16 16 15 15 15 15 14 14 14 15 16 16 16 15 15 16 20 23 25 26 27 28 26 24 24 27 28 28 27 25 21 18 16 14 12 11 10 9 10 10 10 10 9 9 9 9 9 9 9 9 10 10 10 10 11 11 11
9 8 7 6 5 5 5 5 6 6 7 7 8 9 9 9 10 10 11 12 13 13 13 14 14 15 16 16 17 17 18 18 18 18 17 17 16 16 18 18 17 16 15 15 15 16 18 21 22 23 26 28 26 24 26 30 31 30 29 26 22 19 17 15 13 13 13 13 13 14 13 11 10 9 9 9 9 9 9 10 10 10 10 10 10 11 10
9 8 7 6 5 5 5 5 5 6 6 7 8 8 8 9 10 10 11 12 12 12 13 13 14 15 15 16 17 18 18 19 20 20 19 20 19 19 20 21 19 18 17 17 17 19 20 21 20 20 22 25 26 26 28 32 32 29 27 24 22 19 17 15 15 16 17 17 17 16 13 11 10 10 10 9 9 9 9 9 10 10 10 9 9 9 9
9 8 6 5 5 5 5 5 5 5 5 6 7 8 8 9 10 11 11 12 12 12 12 13 14 15 15 15 16 17 17 18 19 19 20 20 21 21 22 22 20 19 20 19 19 20 21 22 20 18 20 23 25 25 26 30 32 31 28 24 21 18 15 14 16 18 18 16 13 12 10 9 9 9 9 9 9 9 9 9 9 9 9 9 9 9 9
8 7 6 5 4 4 4 4 4 5 6 7 8 9 9 10 11 11 12 12 12 12 13 13 14 15 15 16 16 17 18 19 19 19 20 21 21 22 24 22 19 19 21 22 21 19 19 19 18 17 19 23 25 25 26 27 28 28 27 25 21 18 15 13 13 14 12 9 8 8 8 8 8 8 8 8 8 8 9 8 8 8 8 9 9 8 8
8 7 5 5 4 4 4 4 4 6 7 8 9 10 9 10 10 11 11 11 12 12 13 14 14 14 15 15 16 17 17 18 19 20 21 22 22 22 22 21 19 19 21 21 18 17 17 17 17 18 21 23 24 25 28 28 25 22 22 20 17 15 14 13 11 10 8 8 9 9 8 8 8 8 8 7 7 7 7 7 7 8 8 8 8 8 8
8 6 5 5 4 4 3 4 5 7 8 9 9 9 9 9 9 10 11 12 12 13 13 14 14 14 14 15 16 17 17 18 18 19 20 20 21 22 22 21 20 20 19 17 14 14 14 16 16 18 22 25 24 23 26 26 23 19 18 16 14 13 12 11 10 9 9 9 9 8 8 8 8 7 7 7 6 6 6 7 7 7 8 7 8 8 9
7 6 5 4 4 3 3 4 6 7 8 8 7 8 8 9 9 10 11 12 12 13 13 13 13 14 15 15 16 16 17 17 17 16 17 18 20 22 22 20 17 15 13 13 13 13 14 16 17 20 24 27 26 23 24 25 22 19 17 17 16 15 12 10 10 9 9 9 8 8 7 7 7 6 6 6 6 6 6 7 7 8 8 8 8 9 10
7 6 5 4 3 3 3 4 5 6 6 6 7 8 8 8 9 10 11 11 12 12 12 13 13 14 14 15 15 15 15 15 14 15 16 17 18 18 18 16 13 10 9 11 14 16 17 19 22 23 25 26 24 21 20 21 21 18 16 15 14 13 11 10 10 9 9 8 7 7 6 6 6 7 7 6 6 6 6 6 7 8 8 8 9 10 10
6 5 5 4 4 2 1 2 4 4 5 6 7 8 8 8 9 10 11 11 11 11 11 12 13 13 13 13 13 13 12 12 12 13 14 13 12 11 11 11 11 10 11 12 14 17 20 23 25 24 22 21 17 14 12 13 14 14 13 12 11 11 10 10 9 9 8 7 7 7 7 7 8 8 7 8 9 8 7 7 8 9 8 9 9 10 9
7 6 5 4 3 1 1 2 3 3 4 5 7 7 8 8 9 9 9 9 9 9 10 11 11 10 10 10 10 10 11 11 11 11 10 8 7 6 7 8 10 12 13 13 14 17 21 23 21 18 16 16 14 12 10 11 12 13 13 13 13 12 11 10 9 9 9 9 9 9 9 9 8 8 7 8 9 9 9 10 10 9 9 9 10 10 10
7 6 5 4 2 0 1 3 3 3 4 5 6 6 6 7 7 6 6 6 6 6 7 8 7 7 7 7 7 8 9 9 8 8 7 7 7 8 10 11 11 12 13 14 16 18 17 14 11 11 12 14 14 15 16 16 16 16 15 15 15 13 11 10 10 10 9 9 9 9 9 8 9 9 9 9 9 9 9 10 10 10 11 12 11 10 10
7 6 5 4 2 1 2 3 3 3 4 4 5 5 6 7 6 5 4 5 5 5 5 6 6 6 6 6 5 5 5 5 4 5 7 7 8 9 10 10 9 10 11 13 14 14 12 9 8 9 11 12 12 13 14 15 14 13 12 11 11 10 9 10 10 10 9 8 8 9 9 9 9 10 10 10 10 10 10 11 11 12 13 13 12 12 12
7 6 4 3 3 3 4 4 4 3 3 3 3 4 5 6 5 3 3 3 4 4 4 4 4 4 5 5 4 3 2 2 2 2 3 3 5 6 5 4 3 5 7 8 8 9 10 10 10 11 12 12 11 10 9 9 10 10 9 9 9 9 10 10 10 9 9 9 9 9 9 9 9 10 10 11 11 12 12 12 12 12 13 13 13 12 12
7 6 5 4 4 4 5 5 5 4 3 3 3 3 4 4 3 2 2 2 2 2 3 3 3 3 3 2 0 1 1 1 1 1 2 3 5 5 4 4 5 5 4 3 3 5 7 9 12 14 14 12 10 9 10 10 10 10 10 10 9 10 10 11 10 9 10 10 10 10 9 10 10 10 11 12 13 13 13 12 13 13 14 14 14 13 12
Wind_Direction
232 250 265 255 241 232 222 215 213 221 229 227 235 243 232 215 228 247 351 325 274 206 182 169 162 178 170 158 158 157 160 168 169 171 174 179 186 183 178 180 183 181 176 173 173 171 168 170 171 173 179 183 190 195 194 199 203 201 202 204 206 208 208 208 211 209 203 201 202 204 204 205 206 208 209 211 213 215 215 216 217 219 219 219 220 219 221
219 228 244 230 228 238 236 227 232 248 243 228 226 235 229 224 228 219 208 249 16 38 350 170 154 169 167 156 155 153 155 163 167 172 175 179 189 192 189 190 191 192 194 193 196 200 199 195 189 184 185 187 192 194 193 199 205 204 205 205 206 207 206 207 212 212 209 210 210 210 210 210 211 210 209 211 214 216 218 217 217 219 220 221 223 224 224
222 209 223 221 223 228 219 246 312 284 264 250 246 250 244 238 238 217 207 214 113 87 303 222 147 152 155 153 158 158 159 163 165 171 176 177 183 191 194 199 202 204 209 217 224 225 222 222 216 204 199 198 196 194 192 195 200 202 203 203 205 206 204 204 209 211 213 217 217 217 218 219 219 217 214 213 214 215 218 219 219 220 220 221 222 224 227
229 209 216 213 210 206 184 100 355 306 264 262 272 280 284 276 262 243 235 236 113 119 147 146 135 147 151 152 160 165 167 169 169 173 177 176 176 182 188 193 199 207 216 223 224 219 218 223 222 213 208 203 195 191 193 198 202 202 201 201 201 201 202 204 207 209 213 217 218 218 219 221 222 223 222 220 219 219 219 219 222 223 223 224 225 224 227
226 217 225 213 198 196 188 129 19 354 339 323 320 338 359 356 317 268 256 305 85 125 136 134 157 168 155 151 157 162 166 171 174 170 166 166 167 167 170 173 177 185 195 203 208 209 210 215 217 215 210 204 196 191 192 197 200 200 199 198 198 201 205 207 207 207 209 212 214 216 219 222 224 225 224 224 223 224 223 219 221 225 225 228 230 229 228
235 226 261 247 211 198 165 62 31 20 33 7 7 39 25 6 4 345 359 56 101 134 129 137 178 172 144 144 149 152 158 160 154 142 133 135 140 140 142 145 148 157 170 181 190 197 202 206 212 213 209 204 200 199 200 201 201 200 199 197 197 202 208 211 212 214 216 217 220 226 230 234 235 234 231 228 227 228 228 226 226 227 227 227 228 231 231
243 245 277 265 227 175 76 46 33 21 18 21 59 79 43 9 27 28 2 94 136 155 154 161 173 151 129 130 133 136 140 138 132 127 123 125 125 124 133 146 153 165 185 195 194 195 198 201 205 207 205 204 203 203 204 207 209 210 208 203 201 203 209 214 216 222 227 229 234 239 241 242 244 243 240 236 234 232 233 234 233 232 232 229 227 230 230
237 243 244 249 200 112 102 55 32 17 15 26 71 98 55 21 17 6 319 179 170 176 172 161 148 132 122 114 105 112 125 128 132 137 135 132 126 125 141 159 164 173 188 192 188 188 190 191 193 194 193 196 201 201 199 203 210 214 212 210 210 210 211 212 215 222 228 230 234 237 238 237 237 238 235 233 233 234 235 237 235 233 235 235 233 231 228
229 236 230 226 218 183 134 54 25 12 13 8 1 87 64 38 19 3 351 312 185 152 142 133 126 124 123 112 96 92 104 111 120 128 127 124 121 122 130 134 140 158 174 178 180 185 189 190 189 188 188 194 202 202 199 203 208 207 200 200 207 212 210 208 214 222 224 224 228 230 230 226 222 222 222 221 224 229 231 234 234 229 230 231 229 229 228
227 235 227 219 226 218 73 33 9 5 3 348 338 64 66 33 17 14 8 342 334 113 123 128 131 132 131 121 105 87 89 97 105 112 114 112 114 117 117 113 115 124 129 133 142 153 161 163 162 170 180 187 192 190 188 192 195 191 183 179 185 193 195 195 201 209 211 213 220 224 224 220 216 215 215 213 215 222 226 230 229 223 221 223 221 225 227
229 233 232 230 225 184 35 11 354 355 352 336 310 206 107 21 8 8 12 353 338 51 128 134 143 149 146 130 115 100 96 99 104 111 112 111 113 113 110 108 106 108 110 110 112 116 119 120 122 131 147 158 163 162 162 165 167 167 164 160 159 157 152 148 153 164 174 183 196 201 195 195 201 204 206 204 205 214 220 223 225 223 223 225 226 231 232
234 233 233 233 138 60 14 352 342 347 345 329 281 222 153 9 357 357 11 358 341 352 121 139 154 153 93 125 129 119 111 108 109 117 120 118 117 115 112 112 109 109 110 107 105 108 108 106 108 115 127 137 141 140 142 146 147 146 145 144 141 133 127 126 128 137 151 157 160 158 157 166 175 174 179 187 183 184 203 213 217 222 230 231 230 237 243
240 235 230 157 105 38 354 341 338 338 326 302 267 249 346 347 342 350 7 358 343 346 89 115 75 36 67 119 130 123 116 114 114 118 118 115 115 116 116 114 110 108 106 104 109 113 109 105 108 113 118 123 122 123 128 134 136 136 137 136 133 129 125 122 121 134 147 146 144 144 141 138 136 131 125 118 110 104 101 119 140 144 163 247 235 239 247
246 229 214 151 121 20 347 333 346 350 327 260 322 347 334 334 343 357 7 357 352 18 66 66 61 73 97 114 120 118 116 115 114 114 112 108 111 115 115 112 112 113 111 110 115 112 103 103 116 124 128 128 123 121 123 125 126 129 133 134 132 132 129 120 116 131 136 130 132 143 137 120 112 113 107 102 113 128 133 121 120 127 121 110 142 201 210
262 223 190 168 147 27 358 342 3 16 11 33 1 339 331 347 359 5 6 358 3 39 82 88 92 100 105 110 116 117 115 115 116 115 114 118 122 122 118 114 116 120 116 112 111 108 103 112 127 139 145 139 135 135 133 131 132 136 141 141 133 131 133 130 126 129 130 128 133 138 132 122 114 113 112 113 126 137 131 110 108 119 118 108 102 84 66
310 259 87 78 89 40 27 29 52 44 33 28 358 341 350 8 9 6 6 9 23 58 96 104 104 108 112 118 125 125 121 122 124 122 122 126 128 125 121 119 120 119 115 110 109 110 115 127 135 145 149 143 148 153 150 149 149 147 151 152 139 135 146 150 141 136 143 157 166 165 158 145 129 129 133 134 136 130 119 114 122 118 99 101 104 83 62
53 64 84 83 65 53 53 56 60 55 44 34 21 16 19 18 14 12 16 21 37 82 118 124 128 140 145 139 135 133 128 127 127 128 131 133 131 127 127 128 128 125 121 119 119 118 122 131 136 140 144 152 164 165 164 166 164 158 159 160 154 157 165 164 156 153 159 169 179 190 187 150 123 142 137 126 141 139 124 130 155 153 124 120 133 133 127
105 95 99 101 83 69 70 67 60 54 46 38 34 35 34 27 21 24 31 35 45 84 118 127 140 149 145 141 137 134 131 131 131 130 132 133 132 131 129 129 130 129 125 123 121 119 116 115 117 120 131 156 171 172 170 171 170 168 169 168 169 173 174 169 161 154 162 176 176 179 173 154 155 171 150 149 182 167 142 169 192 170 157 162 175 171 157
146 117 97 96 86 73 71 69 64 56 47 43 41 40 38 34 31 34 37 43 55 71 88 112 132 136 137 140 138 134 134 133 130 130 131 129 129 128 123 123 130 131 127 121 118 118 115 111 113 117 123 142 144 125 120 155 179 178 172 171 173 171 170 165 154 150 166 177 168 159 157 152 159 157 145 173 191 152 145 180 198 208 211 193 173 184 197
135 124 107 101 92 78 65 58 57 53 48 47 46 44 43 40 39 41 41 46 58 55 53 104 134 138 139 142 141 138 138 135 131 135 140 139 135 129 119 118 124 124 120 120 122 126 124 120 122 122 120 132 131 120 128 170 196 185 175 176 171 156 149 152 157 169 174 166 155 153 151 157 172 164 148 140 149 187 195 185 167 151 156 204 204 191 244
115 121 127 126 118 96 74 64 60 54 51 51 49 47 48 44 41 44 45 49 58 59 59 93 128 138 143 151 152 145 143 145 145 146 149 150 148 140 131 131 133 125 120 123 129 136 136 136 145 152 156 155 143 147 179 205 215 203 188 176 156 143 144 156 165 170 164 152 148 149 150 183 204 192 174 160 156 186 209 202 188 172 158 169 185 173 188
110 107 109 120 141 116 79 69 65 56 51 53 52 49 49 47 43 42 44 46 52 59 63 75 115 139 148 162 169 160 157 165 168 165 163 165 163 155 148 149 154 156 152 151 171 180 160 171 213 229 226 204 171 177 209 215 211 208 187 148 132 128 128 151 156 141 131 153 168 156 152 192 216 210 201 192 186 200 225 218 208 199 190 190 186 174 192
116 135 98 96 140 128 93 76 69 57 46 49 53 50 47 47 45 43 44 44 43 46 51 53 76 134 155 169 176 174 172 175 178 178 177 176 173 168 162 159 170 202 219 234 280 297 294 273 262 257 250 230 211 215 223 214 206 204 181 144 130 127 123 177 169 137 112 170 173 159 159 186 193 206 218 214 216 234 253 260 250 232 221 216 206 199 221
130 143 113 85 117 119 104 90 73 60 49 47 50 48 44 43 42 41 44 44 41 37 34 34 43 74 167 175 177 182 186 186 187 189 191 191 189 185 181 182 191 214 229 236 252 290 316 297 268 250 240 229 222 225 223 213 211 205 184 156 135 128 144 205 177 144 112 147 168 159 166 186 187 204 235 240 253 265 275 291 297 278 246 232 226 221 229
126 127 103 92 109 112 114 113 88 65 54 49 47 43 39 35 33 36 41 43 42 39 31 26 31 36 108 183 187 193 195 196 198 201 203 202 196 192 197 200 201 207 217 226 237 251 266 269 249 235 223 213 208 205 206 208 210 204 192 178 163 159 173 186 168 154 137 135 149 154 164 182 201 219 231 256 282 293 303 317 325 318 291 259 246 238 235
117 121 118 129 135 129 137 144 111 73 53 47 44 39 32 26 25 30 35 34 34 33 30 27 25 22 30 172 192 195 193 195 200 204 206 204 199 203 219 227 222 218 216 218 227 234 235 235 232 223 211 201 196 189 186 192 198 201 200 199 196 197 201 188 168 161 159 149 153 169 188 199 218 233 243 252 258 269 292 315 329 327 315 304 298 296 286
126 135 177 205 176 146 110 94 99 83 58 47 44 35 25 17 17 20 23 27 28 24 18 19 19 18 23 86 191 197 200 203 205 209 211 212 216 226 238 245 241 230 220 217 220 216 211 216 219 213 204 196 190 184 179 180 184 192 199 205 217 228 221 194 170 162 165 170 175 185 196 211 225 235 249 262 258 250 262 279 296 308 307 305 311 323 325
138 133 177 241 166 126 100 85 96 93 73 58 52 40 27 19 13 7 3 7 10 6 357 349 350 357 360 349 244 214 217 219 219 218 218 218 223 230 235 241 244 232 220 219 219 210 208 214 212 206 202 195 186 179 175 172 175 182 182 174 177 237 224 180 159 166 193 198 199 204 205 209 230 254 261 261 259 261 266 267 267 279 293 294 298 308 315
154 142 128 100 106 117 121 117 110 98 79 59 46 32 21 17 13 6 359 353 349 346 342 336 333 328 317 310 294 251 236 231 228 227 228 228 225 222 222 230 237 231 222 221 223 219 218 219 213 207 203 197 187 180 176 173 172 171 165 151 138 180 216 184 168 186 225 233 231 236 234 216 212 236 256 260 261 264 268 270 270 269 267 273 286 299 308
163 166 161 142 140 146 145 135 117 95 73 46 27 12 6 6 2 357 353 343 334 327 322 320 323 316 299 291 282 267 260 255 243 236 234 232 229 223 217 214 216 215 212 213 220 222 220 219 218 213 207 204 199 191 184 182 182 177 168 163 173 191 195 194 202 218 246 264 270 277 273 248 227 233 244 252 260 264 264 264 266 267 263 260 266 280 295
173 179 174 163 168 171 161 151 146 110 48 15 358 351 352 351 347 343 338 328 319 317 310 303 303 301 293 289 280 267 263 268 261 247 241 235 230 227 223 218 216 217 214 214 220 225 223 222 222 216 210 209 208 199 192 194 200 200 190 185 203 209 198 186 202 230 243 258 273 287 286 264 248 251 254 254 256 260 262 263 263 263 262 262 264 267 268
180 182 181 180 185 191 191 191 207 239 277 318 328 329 330 331 329 327 324 317 308 305 302 295 291 286 281 282 282 273 265 262 257 249 246 239 230 225 225 224 222 220 216 215 221 223 223 226 227 222 216 215 211 202 200 205 207 208 205 207 228 233 220 198 192 205 218 233 243 256 262 256 249 250 254 256 256 256 258 261 262 260 260 262 265 264 258
187 189 193 197 200 207 214 213 221 254 279 295 307 308 307 309 309 308 309 305 296 290 290 288 286 283 278 275 274 271 266 261 255 250 247 241 234 230 232 235 234 230 225 225 227 225 222 226 230 228 226 225 219 207 203 206 209 211 211 211 220 238 252 255 234 203 213 238 234 231 236 239 240 244 247 251 255 254 254 257 259 260 261 263 263 262 262
203 209 212 205 203 213 219 217 225 255 276 281 288 294 297 300 301 300 299 295 288 285 283 281 280 280 277 274 272 270 267 261 254 248 246 247 245 242 241 243 245 242 237 236 236 231 226 225 227 228 230 230 225 213 204 207 213 217 219 216 213 227 250 259 248 215 223 240 235 234 239 242 245 247 246 246 250 251 251 252 253 256 258 258 261 266 268
208 217 215 199 197 206 215 222 241 263 273 278 285 290 291 292 292 291 289 286 283 281 278 276 276 275 272 271 270 270 269 265 258 251 248 247 250 250 246 244 243 240 236 235 233 228 223 222 222 222 225 227 223 211 203 207 212 215 218 220 220 224 234 244 247 247 246 235 227 234 244 250 254 253 245 239 240 242 243 246 250 254 256 254 256 268 274
202 205 203 198 202 211 221 236 255 268 274 278 284 285 287 287 285 283 281 280 279 278 276 274 273 271 267 267 267 268 270 270 266 261 257 252 248 246 245 243 242 239 238 240 238 230 225 225 223 218 218 221 220 213 207 208 211 214 215 215 215 216 218 222 228 233 233 229 229 231 233 237 242 241 235 233 235 237 241 246 248 249 252 253 252 261 273
195 195 195 198 204 214 232 250 262 270 275 280 282 282 283 283 281 279 280 279 279 279 277 274 271 269 266 265 265 265 267 269 267 264 261 256 252 250 246 243 243 241 240 243 243 236 230 229 228 223 218 217 216 214 212 209 208 211 216 216 213 209 207 209 215 220 226 235 237 232 232 241 245 244 239 237 235 234 236 243 246 246 247 252 253 254 262
188 187 191 199 208 222 241 255 266 272 276 280 281 280 280 281 281 282 283 282 281 280 277 274 271 269 267 266 265 263 263 265 265 264 262 257 255 253 249 245 246 248 248 249 247 240 234 233 232 230 226 222 218 216 215 212 209 212 218 220 215 208 204 204 207 211 218 229 231 228 232 238 237 234 236 236 233 233 234 237 243 247 249 252 257 258 259
184 188 196 204 213 230 245 256 266 271 272 276 279 281 282 284 286 286 284 281 278 276 275 273 272 269 267 266 264 262 261 262 262 262 262 259 255 252 251 249 248 249 252 249 241 238 240 241 236 231 230 229 225 219 217 216 217 221 224 222 218 217 216 212 208 210 217 226 233 236 241 238 226 222 228 230 229 235 238 237 241 248 253 254 256 257 259
188 191 197 205 216 234 250 257 262 266 270 276 281 286 290 292 290 287 283 281 278 275 273 273 272 269 267 266 266 265 264 263 261 259 260 260 257 254 254 254 250 247 249 247 240 239 244 247 241 233 229 226 222 218 219 222 224 226 224 222 224 230 230 220 214 220 233 242 246 246 245 239 227 223 227 230 231 234 238 239 243 249 254 256 258 259 261
190 189 196 211 224 238 248 253 261 272 280 284 287 290 293 292 288 284 282 282 280 278 275 272 271 271 270 269 269 268 266 264 262 260 259 260 259 256 256 256 253 251 249 244 238 240 247 249 245 237 227 220 218 219 224 228 227 225 223 224 227 232 231 223 225 236 245 249 249 246 239 231 228 228 227 227 228 231 234 240 245 247 249 253 255 256 259
188 191 202 214 222 234 246 257 272 284 289 292 293 291 288 285 283 282 282 281 280 279 277 273 271 273 273 271 271 269 266 264 263 261 258 257 257 258 260 261 260 257 249 240 236 243 250 248 242 231 219 214 214 216 222 226 225 223 225 230 232 230 225 221 227 238 242 232 221 221 220 217 221 224 222 222 229 234 235 237 240 242 245 249 251 254 259
187 191 202 210 218 234 252 265 278 286 290 289 286 281 280 281 281 279 279 279 277 277 278 276 274 274 274 273 271 269 266 263 262 261 258 256 256 257 258 258 255 251 245 240 240 246 249 247 242 230 215 209 210 212 217 222 224 223 225 230 229 222 216 210 207 209 207 198 198 206 211 211 214 220 222 226 232 236 234 233 236 240 243 248 254 260 261
185 187 194 202 211 225 247 263 275 281 281 277 275 273 275 278 279 278 279 280 278 277 277 276 275 274 274 272 271 269 268 268 266 263 260 259 257 254 253 253 250 245 239 234 235 245 251 250 243 226 211 210 215 218 218 219 220 219 219 217 205 194 197 202 200 197 197 198 199 203 206 209 212 217 220 223 227 232 234 237 242 246 249 251 255 259 260
181 182 188 198 206 221 250 266 272 274 273 275 283 291 291 289 286 282 279 279 279 277 277 276 275 275 274 273 272 269 269 270 269 265 263 265 265 262 259 257 251 244 237 233 237 247 250 241 229 217 213 216 220 217 211 208 207 207 207 203 191 182 185 193 194 192 194 196 195 197 200 206 213 217 219 226 240 250 247 243 243 248 253 255 256 256 258
177 178 182 194 203 214 241 263 272 278 283 292 303 307 303 297 291 284 280 279 277 275 274 274 273 273 274 274 272 271 272 273 272 270 269 270 267 264 263 260 254 246 247 251 252 249 237 222 214 215 217 216 211 205 202 201 198 194 193 190 181 174 178 185 189 193 197 195 192 196 205 217 227 227 226 232 245 248 242 239 243 246 249 254 256 257 257
176 181 186 193 193 191 237 292 294 298 306 308 305 303 301 298 293 287 285 281 276 272 273 275 275 277 277 274 271 273 276 276 271 270 272 271 265 259 259 261 259 259 263 265 259 247 234 226 223 223 220 211 202 199 204 201 188 178 174 173 170 172 182 191 196 202 209 210 210 217 228 236 237 234 235 245 251 249 249 256 262 261 256 255 258 259 260
186 193 195 193 184 161 355 323 306 301 302 301 300 302 304 303 298 294 292 288 281 278 279 281 280 280 280 276 273 274 274 269 266 269 274 277 276 268 253 244 248 255 258 256 247 237 232 231 232 227 214 200 189 183 185 187 180 172 170 172 174 181 193 203 209 214 220 223 223 226 233 238 238 236 240 249 252 251 253 259 263 263 262 261 262 263 263
189 193 194 191 180 173 326 313 301 292 291 297 304 308 306 301 298 299 302 302 298 293 292 293 293 292 288 283 279 279 276 271 269 271 268 263 262 256 244 239 246 253 248 239 231 224 219 217 217 212 205 201 195 187 183 185 184 181 180 181 182 184 193 205 212 215 217 220 224 228 231 235 239 243 246 248 249 250 253 257 258 258 257 257 257 259 263
192 195 196 193 191 226 276 283 276 276 283 296 305 309 304 299 300 307 312 311 310 308 306 306 309 309 305 298 291 288 285 278 267 263 257 250 247 246 243 247 256 255 242 231 225 217 206 200 201 202 198 192 186 182 183 184 184 184 186 187 187 188 195 204 210 213 216 220 228 234 236 237 241 245 248 249 251 254 258 260 260 260 260 260 259 260 263
197 200 203 203 206 230 255 260 256 254 258 266 281 294 300 300 302 312 320 315 317 326 327 323 322 322 314 302 289 288 298 299 281 269 252 220 212 220 227 228 226 223 221 221 218 210 204 201 195 183 170 162 160 164 172 179 185 192 196 197 197 201 206 206 209 217 224 225 227 233 239 244 248 249 251 253 255 257 258 260 260 261 264 266 264 262 261
207 211 216 217 221 236 251 257 257 256 253 252 266 287 299 299 305 336 8 1 358 4 359 350 352 352 342 323 264 131 117 128 132 108 113 141 159 165 156 145 142 145 148 158 185 195 195 188 174 161 153 153 166 185 193 194 196 200 202 201 203 209 213 213 217 224 228 228 230 234 239 244 247 249 252 256 257 257 257 259 259 260 262 262 261 259 259